VIV567 MMOX-MMMX

Flight info

Callsign VIV567
Flight time 0h 58m
Altitude 32000
Route MAXIL UT158 KODEK UT157 LARLO
Aircraft A320/M-SDE3FGHIRWY/LB1

Departure

Time 2026-04-24 02:03
Airport Xoxocotlán International Airport (MMOX)

Arrival

Time 2026-04-24 03:02
Airport Mexico City Benito Juárez International Airport (MMMX)
Time Latitude Longitude Altitude Speed Heading
2026-04-24 01:24 17.00097 -96.72257 5017 ft 0 kts 105°
2026-04-24 01:49 17.00098 -96.72258 5021 ft 1 kts 105°
2026-04-24 01:49 17.00099 -96.72265 5020 ft 1 kts 105°
2026-04-24 01:49 17.00101 -96.72271 5019 ft 1 kts 105°
2026-04-24 01:50 17.00103 -96.72278 5018 ft 1 kts 105°
2026-04-24 01:50 17.00104 -96.72284 5019 ft 0 kts 105°
2026-04-24 01:50 17.00107 -96.72288 5016 ft 1 kts 67°
2026-04-24 01:50 17.00104 -96.72294 5018 ft 1 kts 52°
2026-04-24 01:51 17.00100 -96.72300 5018 ft 1 kts 51°
2026-04-24 01:51 17.00095 -96.72306 5017 ft 1 kts 51°
2026-04-24 01:51 17.00090 -96.72312 5019 ft 1 kts 51°
2026-04-24 01:51 17.00086 -96.72318 5020 ft 1 kts 51°
2026-04-24 01:52 17.00078 -96.72328 5020 ft 2 kts 51°
2026-04-24 01:52 17.00071 -96.72337 5021 ft 2 kts 35°
2026-04-24 01:52 17.00063 -96.72342 5020 ft 0 kts 15°
2026-04-24 01:57 17.00064 -96.72342 5019 ft 1 kts 15°
2026-04-24 01:57 17.00113 -96.72328 5021 ft 13 kts 15°
2026-04-24 01:57 17.00220 -96.72296 5021 ft 16 kts 18°
2026-04-24 01:57 17.00289 -96.72316 5021 ft 8 kts 284°
2026-04-24 01:58 17.00301 -96.72366 5022 ft 4 kts 286°
2026-04-24 01:58 17.00303 -96.72375 5022 ft 0 kts 286°
2026-04-24 01:59 17.00304 -96.72376 5022 ft 1 kts 286°
2026-04-24 01:59 17.00313 -96.72411 5022 ft 9 kts 286°
2026-04-24 01:59 17.00376 -96.72450 5023 ft 15 kts 14°
2026-04-24 02:00 17.00501 -96.72414 5024 ft 22 kts 15°
2026-04-24 02:00 17.00669 -96.72364 5025 ft 28 kts 15°
2026-04-24 02:00 17.00815 -96.72340 5025 ft 16 kts 345°
2026-04-24 02:00 17.00920 -96.72343 5025 ft 14 kts 57°
2026-04-24 02:01 17.00869 -96.72305 5025 ft 6 kts 195°
2026-04-24 02:01 17.00866 -96.72306 5025 ft 0 kts 195°
2026-04-24 02:02 17.00691 -96.72356 5025 ft 68 kts 194°
2026-04-24 02:02 16.99978 -96.72568 5022 ft 141 kts 195°
2026-04-24 02:03 16.97746 -96.73161 6370 ft 167 kts 189°
2026-04-24 02:03 16.96624 -96.73386 6723 ft 174 kts 191°
2026-04-24 02:03 16.95392 -96.73678 6902 ft 186 kts 193°
2026-04-24 02:04 16.94086 -96.73996 7082 ft 203 kts 192°
2026-04-24 02:04 16.92642 -96.74348 7248 ft 224 kts 193°
2026-04-24 02:04 16.91031 -96.74750 7381 ft 254 kts 193°
2026-04-24 02:04 16.89213 -96.75216 7657 ft 280 kts 194°
2026-04-24 02:05 16.87281 -96.75739 8169 ft 289 kts 200°
2026-04-24 02:05 16.85678 -96.76953 9094 ft 289 kts 233°
2026-04-24 02:05 16.84948 -96.78879 9974 ft 292 kts 264°
2026-04-24 02:05 16.85269 -96.81015 10334 ft 312 kts 295°
2026-04-24 02:06 16.86680 -96.82794 10617 ft 331 kts 326°
2026-04-24 02:06 16.88859 -96.83674 11006 ft 347 kts 354°
2026-04-24 02:06 16.91260 -96.83391 11633 ft 348 kts 18°
2026-04-24 02:06 16.93469 -96.82430 12571 ft 343 kts 30°
2026-04-24 02:07 16.95348 -96.80907 13264 ft 346 kts 50°
2026-04-24 02:07 16.96531 -96.78717 13862 ft 351 kts 72°
2026-04-24 02:07 16.97091 -96.76235 14498 ft 352 kts 74°
2026-04-24 02:07 16.98122 -96.73932 15127 ft 352 kts 54°
2026-04-24 02:08 16.99888 -96.72185 15774 ft 353 kts 31°
2026-04-24 02:08 17.02202 -96.71306 16240 ft 360 kts
2026-04-24 02:08 17.04704 -96.71512 16738 ft 366 kts 342°
2026-04-24 02:08 17.06941 -96.72778 17273 ft 371 kts 320°
2026-04-24 02:09 17.08123 -96.74074 17649 ft 374 kts 306°
2026-04-24 02:09 17.09601 -96.77369 17983 ft 376 kts 290°
2026-04-24 02:09 17.10172 -96.79073 18001 ft 375 kts 290°
2026-04-24 02:09 17.11612 -96.82387 18014 ft 374 kts 301°
2026-04-24 02:10 17.13119 -96.84551 18032 ft 373 kts 313°
2026-04-24 02:10 17.15048 -96.86392 18036 ft 370 kts 324°
2026-04-24 02:10 17.16443 -96.87407 18024 ft 370 kts 326°
2026-04-24 02:10 17.19275 -96.89449 18002 ft 369 kts 325°
2026-04-24 02:11 17.20670 -96.90465 17992 ft 369 kts 325°
2026-04-24 02:11 17.22776 -96.92009 17970 ft 369 kts 325°
2026-04-24 02:11 17.24880 -96.93560 17956 ft 369 kts 325°
2026-04-24 02:11 17.26976 -96.95111 17940 ft 369 kts 325°
2026-04-24 02:12 17.29067 -96.96657 17934 ft 367 kts 325°
2026-04-24 02:12 17.31170 -96.98212 18362 ft 370 kts 325°
2026-04-24 02:12 17.33268 -96.99761 19061 ft 365 kts 325°
2026-04-24 02:12 17.35302 -97.01260 20107 ft 349 kts 325°
2026-04-24 02:13 17.37245 -97.02696 21089 ft 338 kts 325°
2026-04-24 02:13 17.39131 -97.04100 22027 ft 326 kts 325°
2026-04-24 02:13 17.40948 -97.05454 22976 ft 314 kts 325°
2026-04-24 02:13 17.42656 -97.06721 23937 ft 300 kts 325°
2026-04-24 02:14 17.44351 -97.07977 24499 ft 297 kts 325°
2026-04-24 02:14 17.46033 -97.09232 24938 ft 299 kts 325°
2026-04-24 02:14 17.47737 -97.10498 25329 ft 302 kts 325°
2026-04-24 02:14 17.49457 -97.11777 25700 ft 305 kts 325°
2026-04-24 02:15 17.51198 -97.13070 26089 ft 308 kts 325°
2026-04-24 02:15 17.52966 -97.14381 26328 ft 317 kts 325°
2026-04-24 02:15 17.54794 -97.15751 26473 ft 329 kts 325°
2026-04-24 02:15 17.56677 -97.17177 26644 ft 339 kts 324°
2026-04-24 02:16 17.58608 -97.18652 26878 ft 347 kts 324°
2026-04-24 02:16 17.60572 -97.20177 27146 ft 354 kts 321°
2026-04-24 02:16 17.62403 -97.21940 27378 ft 362 kts 316°
2026-04-24 02:16 17.64222 -97.23799 27631 ft 369 kts 316°
2026-04-24 02:17 17.66077 -97.25689 27911 ft 374 kts 316°
2026-04-24 02:17 17.67966 -97.27605 28225 ft 379 kts 316°
2026-04-24 02:17 17.69875 -97.29541 28573 ft 384 kts 316°
2026-04-24 02:17 17.71802 -97.31492 28914 ft 388 kts 316°
2026-04-24 02:18 17.73752 -97.33467 29284 ft 391 kts 316°
2026-04-24 02:18 17.75725 -97.35463 29540 ft 398 kts 316°
2026-04-24 02:18 17.77739 -97.37500 29774 ft 404 kts 316°
2026-04-24 02:18 17.79781 -97.39563 30041 ft 410 kts 316°
2026-04-24 02:19 17.81850 -97.41653 30300 ft 415 kts 316°
2026-04-24 02:19 17.83939 -97.43762 30568 ft 420 kts 316°
2026-04-24 02:19 17.86056 -97.45900 30847 ft 424 kts 316°
2026-04-24 02:19 17.88196 -97.48067 30980 ft 431 kts 316°
2026-04-24 02:20 17.90368 -97.50273 31177 ft 437 kts 316°
2026-04-24 02:20 17.92570 -97.52499 31422 ft 441 kts 316°
2026-04-24 02:20 17.94786 -97.54740 31745 ft 444 kts 316°
2026-04-24 02:20 17.97011 -97.56984 32011 ft 441 kts 316°
2026-04-24 02:21 17.99163 -97.59163 31905 ft 428 kts 317°
2026-04-24 02:21 18.01271 -97.61315 31909 ft 419 kts 316°
2026-04-24 02:21 18.05410 -97.65559 31956 ft 414 kts 316°
2026-04-24 02:22 18.09543 -97.69777 31955 ft 414 kts 317°
2026-04-24 02:22 18.13684 -97.73980 31956 ft 414 kts 317°
2026-04-24 02:23 18.17835 -97.78188 31935 ft 414 kts 317°
2026-04-24 02:23 18.21972 -97.82399 31931 ft 414 kts 317°
2026-04-24 02:24 18.26102 -97.86612 31940 ft 414 kts 317°
2026-04-24 02:24 18.30237 -97.90823 31898 ft 413 kts 316°
2026-04-24 02:25 18.34372 -97.95041 31908 ft 413 kts 316°
2026-04-24 02:25 18.38498 -97.99247 31906 ft 413 kts 317°
2026-04-24 02:26 18.42620 -98.03455 31887 ft 412 kts 317°
2026-04-24 02:26 18.44651 -98.05528 31510 ft 412 kts 317°
2026-04-24 02:26 18.46711 -98.07628 31153 ft 412 kts 317°
2026-04-24 02:27 18.48772 -98.09730 30807 ft 412 kts 317°
2026-04-24 02:27 18.50829 -98.11832 30454 ft 412 kts 317°
2026-04-24 02:27 18.52884 -98.13938 30110 ft 412 kts 316°
2026-04-24 02:27 18.54927 -98.16034 29758 ft 410 kts 316°
2026-04-24 02:28 18.56967 -98.18126 29338 ft 408 kts 316°
2026-04-24 02:28 18.58990 -98.20204 28904 ft 405 kts 316°
2026-04-24 02:28 18.61009 -98.22273 28485 ft 403 kts 316°
2026-04-24 02:28 18.63014 -98.24324 28090 ft 401 kts 316°
2026-04-24 02:29 18.65019 -98.26375 27690 ft 408 kts 316°
2026-04-24 02:29 18.67114 -98.28516 27310 ft 428 kts 316°
2026-04-24 02:29 18.69298 -98.30692 26903 ft 433 kts 321°
2026-04-24 02:29 18.71825 -98.32409 26469 ft 433 kts 334°
2026-04-24 02:30 18.74677 -98.33413 26045 ft 433 kts 348°
2026-04-24 02:30 18.77724 -98.33766 25597 ft 450 kts 354°
2026-04-24 02:30 18.80872 -98.34027 25155 ft 454 kts 354°
2026-04-24 02:30 18.84026 -98.34284 24716 ft 454 kts 354°
2026-04-24 02:31 18.87179 -98.34543 24245 ft 454 kts 354°
2026-04-24 02:31 18.90287 -98.34802 23810 ft 452 kts 354°
2026-04-24 02:31 18.93452 -98.35070 23386 ft 450 kts 354°
2026-04-24 02:31 18.96562 -98.35337 22875 ft 446 kts 354°
2026-04-24 02:32 18.99605 -98.35599 22566 ft 442 kts 354°
2026-04-24 02:32 19.02703 -98.35867 22111 ft 439 kts 354°
2026-04-24 02:32 19.05697 -98.36125 21663 ft 435 kts 354°
2026-04-24 02:32 19.08703 -98.36381 21194 ft 432 kts 354°
2026-04-24 02:33 19.11693 -98.36636 20752 ft 429 kts 354°
2026-04-24 02:33 19.14693 -98.36891 20358 ft 426 kts 354°
2026-04-24 02:33 19.17598 -98.37173 19945 ft 423 kts 353°
2026-04-24 02:33 19.20547 -98.37574 19531 ft 420 kts 351°
2026-04-24 02:34 19.23396 -98.38041 19143 ft 408 kts 350°
2026-04-24 02:34 19.26122 -98.38523 18797 ft 398 kts 350°
2026-04-24 02:34 19.28798 -98.38998 18398 ft 379 kts 349°
2026-04-24 02:34 19.31325 -98.39432 17907 ft 359 kts 350°
2026-04-24 02:35 19.33753 -98.39834 17439 ft 349 kts 350°
2026-04-24 02:35 19.36145 -98.40220 16975 ft 346 kts 351°
2026-04-24 02:35 19.38509 -98.40597 16497 ft 343 kts 351°
2026-04-24 02:35 19.40863 -98.40971 16045 ft 342 kts 351°
2026-04-24 02:36 19.43203 -98.41347 15736 ft 339 kts 349°
2026-04-24 02:36 19.45411 -98.42161 15480 ft 337 kts 329°
2026-04-24 02:36 19.47340 -98.43583 15225 ft 337 kts 324°
2026-04-24 02:36 19.49209 -98.45075 14952 ft 333 kts 323°
2026-04-24 02:37 19.51029 -98.46540 14788 ft 323 kts 323°
2026-04-24 02:37 19.52796 -98.47966 14576 ft 316 kts 323°
2026-04-24 02:37 19.54527 -98.49369 14334 ft 311 kts 323°
2026-04-24 02:37 19.56234 -98.50756 14109 ft 308 kts 323°
2026-04-24 02:38 19.57934 -98.52147 13886 ft 308 kts 321°
2026-04-24 02:38 19.59338 -98.53844 13672 ft 308 kts 301°
2026-04-24 02:38 19.60062 -98.55965 13468 ft 305 kts 279°
2026-04-24 02:38 19.60082 -98.58202 13291 ft 303 kts 269°
2026-04-24 02:39 19.59974 -98.60404 13119 ft 303 kts 268°
2026-04-24 02:39 19.59860 -98.62631 12945 ft 302 kts 268°
2026-04-24 02:39 19.59744 -98.64886 12753 ft 302 kts 268°
2026-04-24 02:39 19.59633 -98.67101 12575 ft 299 kts 268°
2026-04-24 02:40 19.59525 -98.69285 12408 ft 292 kts 268°
2026-04-24 02:40 19.59420 -98.71407 12237 ft 285 kts 268°
2026-04-24 02:40 19.59317 -98.73477 12102 ft 277 kts 268°
2026-04-24 02:40 19.59218 -98.75462 11998 ft 264 kts 269°
2026-04-24 02:41 19.59126 -98.77354 11899 ft 256 kts 269°
2026-04-24 02:41 19.58923 -98.79198 11806 ft 250 kts 256°
2026-04-24 02:41 19.58220 -98.80863 11607 ft 248 kts 242°
2026-04-24 02:41 19.57349 -98.82412 11362 ft 240 kts 240°
2026-04-24 02:42 19.56516 -98.83896 11162 ft 231 kts 240°
2026-04-24 02:42 19.55701 -98.85352 10920 ft 228 kts 240°
2026-04-24 02:42 19.54895 -98.86793 10657 ft 227 kts 239°
2026-04-24 02:42 19.54097 -98.88221 10390 ft 221 kts 239°
2026-04-24 02:43 19.53325 -98.89602 10138 ft 215 kts 238°
2026-04-24 02:43 19.52567 -98.90959 9874 ft 213 kts 239°
2026-04-24 02:43 19.51817 -98.92306 9647 ft 210 kts 239°
2026-04-24 02:43 19.51121 -98.93596 9459 ft 193 kts 238°
2026-04-24 02:44 19.50459 -98.94764 9304 ft 176 kts 237°
2026-04-24 02:44 19.49862 -98.95856 9292 ft 169 kts 237°
2026-04-24 02:44 19.49243 -98.96907 9179 ft 166 kts 236°
2026-04-24 02:44 19.48667 -98.97955 9041 ft 164 kts 238°
2026-04-24 02:45 19.48143 -98.98870 8940 ft 165 kts 236°
2026-04-24 02:45 19.47556 -98.99921 8776 ft 165 kts 239°
2026-04-24 02:45 19.46987 -99.00978 8612 ft 164 kts 237°
2026-04-24 02:45 19.46361 -99.02027 8817 ft 174 kts 231°
2026-04-24 02:46 19.45449 -99.02916 9359 ft 186 kts 212°
2026-04-24 02:46 19.44289 -99.03623 9726 ft 200 kts 205°
2026-04-24 02:46 19.42932 -99.04249 10040 ft 230 kts 203°
2026-04-24 02:46 19.41335 -99.04984 9989 ft 256 kts 203°
2026-04-24 02:47 19.39731 -99.05730 10004 ft 249 kts 204°
2026-04-24 02:47 19.38149 -99.06468 10014 ft 248 kts 204°
2026-04-24 02:47 19.36568 -99.07207 10020 ft 248 kts 204°
2026-04-24 02:47 19.34999 -99.07963 10004 ft 247 kts 210°
2026-04-24 02:48 19.33768 -99.09199 10011 ft 246 kts 242°
2026-04-24 02:48 19.33319 -99.10894 9989 ft 239 kts 273°
2026-04-24 02:48 19.33774 -99.12546 9990 ft 236 kts 304°
2026-04-24 02:48 19.34987 -99.13706 10007 ft 240 kts 328°
2026-04-24 02:49 19.36483 -99.14507 9997 ft 242 kts 333°
2026-04-24 02:49 19.38013 -99.15247 10001 ft 241 kts 334°
2026-04-24 02:49 19.39542 -99.15973 10009 ft 240 kts 334°
2026-04-24 02:49 19.41079 -99.16692 10055 ft 244 kts 333°
2026-04-24 02:50 19.42636 -99.17433 10772 ft 245 kts 334°
2026-04-24 02:50 19.44184 -99.18189 11605 ft 244 kts 334°
2026-04-24 02:50 19.45735 -99.18936 12371 ft 246 kts 340°
2026-04-24 02:50 19.47442 -99.19159 12812 ft 251 kts
2026-04-24 02:51 19.49058 -99.18479 12946 ft 254 kts 36°
2026-04-24 02:51 19.50247 -99.17088 12984 ft 257 kts 51°
2026-04-24 02:51 19.51251 -99.15550 12990 ft 257 kts 53°
2026-04-24 02:51 19.52245 -99.13983 12993 ft 256 kts 53°
2026-04-24 02:52 19.53233 -99.12407 12995 ft 259 kts 54°
2026-04-24 02:52 19.54297 -99.10723 12999 ft 290 kts 54°
2026-04-24 02:52 19.55453 -99.08910 12983 ft 301 kts 53°
2026-04-24 02:52 19.56641 -99.07052 12968 ft 307 kts 52°
2026-04-24 02:53 19.57853 -99.05163 12950 ft 310 kts 54°
2026-04-24 02:53 19.59075 -99.03269 12936 ft 311 kts 54°
2026-04-24 02:53 19.59887 -99.02015 12924 ft 311 kts 53°
2026-04-24 02:53 19.61517 -98.99490 12638 ft 309 kts 54°
2026-04-24 02:54 19.62313 -98.98243 12405 ft 307 kts 58°
2026-04-24 02:54 19.63031 -98.96149 12253 ft 301 kts 79°
2026-04-24 02:54 19.63262 -98.93980 12130 ft 292 kts 83°
2026-04-24 02:54 19.63440 -98.91868 11994 ft 283 kts 82°
2026-04-24 02:55 19.63597 -98.89822 11867 ft 274 kts 83°
2026-04-24 02:55 19.63750 -98.87841 11732 ft 265 kts 84°
2026-04-24 02:55 19.63910 -98.85920 11547 ft 259 kts 84°
2026-04-24 02:55 19.63690 -98.84045 11306 ft 258 kts 112°
2026-04-24 02:56 19.62640 -98.82520 11087 ft 258 kts 142°
2026-04-24 02:56 19.61026 -98.81748 10877 ft 256 kts 172°
2026-04-24 02:56 19.59271 -98.81932 10811 ft 256 kts 198°
2026-04-24 02:56 19.57671 -98.82768 10847 ft 256 kts 217°
2026-04-24 02:57 19.56430 -98.84085 10862 ft 252 kts 236°
2026-04-24 02:57 19.55518 -98.85671 10878 ft 248 kts 240°
2026-04-24 02:57 19.54657 -98.87221 10872 ft 243 kts 240°
2026-04-24 02:57 19.53802 -98.88754 10660 ft 240 kts 240°
2026-04-24 02:58 19.52952 -98.90275 10402 ft 238 kts 239°
2026-04-24 02:58 19.52142 -98.91724 10156 ft 225 kts 239°
2026-04-24 02:58 19.51358 -98.93125 9871 ft 217 kts 239°
2026-04-24 02:58 19.50598 -98.94485 9652 ft 213 kts 238°
2026-04-24 02:59 19.49841 -98.95837 9474 ft 212 kts 238°
2026-04-24 02:59 19.49088 -98.97183 9294 ft 209 kts 239°
2026-04-24 02:59 19.48377 -98.98460 8975 ft 195 kts 238°
2026-04-24 02:59 19.47693 -98.99661 8589 ft 185 kts 238°
2026-04-24 03:00 19.47074 -99.00804 8281 ft 175 kts 239°
2026-04-24 03:00 19.46459 -99.01906 8047 ft 169 kts 238°
2026-04-24 03:00 19.45864 -99.02949 7846 ft 166 kts 238°
2026-04-24 03:00 19.45282 -99.03991 7660 ft 166 kts 241°
2026-04-24 03:01 19.44698 -99.05022 7439 ft 161 kts 239°
2026-04-24 03:01 19.44137 -99.06025 7302 ft 147 kts 238°
2026-04-24 03:01 19.43704 -99.06795 7303 ft 97 kts 239°
2026-04-24 03:01 19.43425 -99.07295 7303 ft 67 kts 239°
2026-04-24 03:02 19.43331 -99.07593 7303 ft 35 kts 272°
2026-04-24 03:02 19.43323 -99.07715 7303 ft 13 kts 275°
2026-04-24 03:02 19.43325 -99.07800 7303 ft 7 kts 271°
2026-04-24 03:02 19.43325 -99.07809 7303 ft 0 kts 271°
2026-04-24 03:03 19.43326 -99.07821 7303 ft 5 kts 271°
2026-04-24 03:04 19.43326 -99.07892 7303 ft 14 kts 268°
2026-04-24 03:04 19.43324 -99.07999 7304 ft 17 kts 269°
2026-04-24 03:04 19.43384 -99.08087 7303 ft 7 kts 329°
2026-04-24 03:04 19.43398 -99.08095 7303 ft 0 kts 330°
2026-04-24 03:05 19.43401 -99.08097 7303 ft 1 kts 329°
2026-04-24 03:05 19.43413 -99.08123 7303 ft 8 kts 269°
2026-04-24 03:05 19.43376 -99.08185 7303 ft 11 kts 240°
2026-04-24 03:05 19.43323 -99.08283 7303 ft 8 kts 240°
2026-04-24 03:06 19.43297 -99.08329 7303 ft 8 kts 236°
2026-04-24 03:06 19.43276 -99.08384 7303 ft 9 kts 284°
2026-04-24 03:06 19.43317 -99.08411 7303 ft 7 kts 330°
2026-04-24 03:06 19.43334 -99.08422 7303 ft 3 kts 329°
2026-04-24 03:07 19.43347 -99.08431 7303 ft 0 kts 329°